When you browse on this site, cookies collect data to enhance your experience and personalize the content and advertising you see.
Visit our Privacy Policy to learn more. By continuing to use the site, you agree to this use of cookies and data.
  • Em Portugal
  • Lista de países
  • Para 7 dias
  • Temperatura da água
  • Mapas de satélite
  • Mapa do tempo
  • Widgets de tempo
  • user-avatar
    Iniciar Sessão

    Previsão horária em Ottal

    Hoje, 19 Junho, Quarta-feira

    Tempo Temperatura Precipitação Vento Pressão Humidade
    00:00 +9°C° 0.2 mm 0 m/s 592 mmHg 87%
    01:00 +10°C° 0.1 mm 1 m/s 592 mmHg 87%
    02:00 +10°C° 0.1 mm 1 m/s 592 mmHg 87%
    03:00 +9°C° 0 mm 1 m/s 592 mmHg 87%
    04:00 +11°C° 0 mm 1 m/s 593 mmHg 84%
    05:00 +12°C° 0 mm 1 m/s 593 mmHg 81%
    06:00 +12°C° 0 mm 0 m/s 594 mmHg 78%
    07:00 +14°C° 0.4 mm 1 m/s 595 mmHg 77%
    08:00 +15°C° 0.4 mm 1 m/s 595 mmHg 76%
    09:00 +16°C° 0.4 mm 2 m/s 595 mmHg 74%
    10:00 +17°C° 1.3 mm 2 m/s 595 mmHg 74%
    11:00 +17°C° 1.3 mm 2 m/s 595 mmHg 74%
    12:00 +17°C° 1.3 mm 2 m/s 595 mmHg 74%
    13:00 +17°C° 1.8 mm 2 m/s 595 mmHg 74%
    14:00 +16°C° 1.8 mm 1 m/s 595 mmHg 75%
    15:00 +16°C° 1.8 mm 1 m/s 595 mmHg 75%
    16:00 +16°C° 0.8 mm 1 m/s 594 mmHg 76%
    17:00 +16°C° 0.8 mm 1 m/s 594 mmHg 77%
    18:00 +15°C° 0.8 mm 0 m/s 594 mmHg 78%
    19:00 +14°C° 0.1 mm 1 m/s 594 mmHg 80%
    20:00 +13°C° 0.1 mm 1 m/s 593 mmHg 81%
    21:00 +12°C° 0.1 mm 1 m/s 593 mmHg 82%
    22:00 +11°C° 0 mm 1 m/s 593 mmHg 82%
    23:00 +11°C° 0 mm 1 m/s 593 mmHg 82%

    Amanhã, 20 Junho, Quinta-feira

    Tempo Temperatura Precipitação Vento Pressão Humidade
    00:00 +11°C° 0 mm 1 m/s 593 mmHg 81%
    01:00 +11°C° 0 mm 1 m/s 592 mmHg 83%
    02:00 +10°C° 0 mm 1 m/s 592 mmHg 84%
    03:00 +10°C° 0 mm 1 m/s 592 mmHg 85%
    04:00 +11°C° 0 mm 1 m/s 593 mmHg 83%
    05:00 +12°C° 0 mm 1 m/s 593 mmHg 81%
    06:00 +14°C° 0 mm 1 m/s 594 mmHg 78%
    07:00 +15°C° 0.1 mm 1 m/s 594 mmHg 74%
    08:00 +16°C° 0.1 mm 2 m/s 595 mmHg 71%
    09:00 +17°C° 0.1 mm 2 m/s 595 mmHg 67%
    10:00 +18°C° 0.5 mm 2 m/s 595 mmHg 65%
    11:00 +18°C° 0.5 mm 2 m/s 595 mmHg 64%
    12:00 +19°C° 0.5 mm 2 m/s 595 mmHg 62%
    13:00 +19°C° 0.5 mm 2 m/s 595 mmHg 60%
    14:00 +19°C° 0.5 mm 2 m/s 595 mmHg 57%
    15:00 +20°C° 0.5 mm 2 m/s 595 mmHg 55%
    16:00 +19°C° 0.2 mm 2 m/s 595 mmHg 57%
    17:00 +19°C° 0.2 mm 2 m/s 595 mmHg 59%
    18:00 +18°C° 0.2 mm 2 m/s 594 mmHg 61%
    19:00 +16°C° 0 mm 1 m/s 594 mmHg 66%
    20:00 +14°C° 0 mm 1 m/s 593 mmHg 71%
    21:00 +11°C° 0 mm 1 m/s 592 mmHg 77%
    22:00 +11°C° 0 mm 1 m/s 592 mmHg 76%
    23:00 +11°C° 0 mm 1 m/s 592 mmHg 76%

    Depois de amanhã, 21 Junho, Sexta-feira

    Tempo Temperatura Precipitação Vento Pressão Humidade
    00:00 +11°C° 0 mm 1 m/s 592 mmHg 75%
    01:00 +11°C° 0 mm 1 m/s 592 mmHg 76%
    02:00 +11°C° 0 mm 1 m/s 592 mmHg 76%
    03:00 +10°C° 0 mm 1 m/s 592 mmHg 76%
    04:00 +12°C° 0 mm 1 m/s 592 mmHg 74%
    05:00 +13°C° 0 mm 1 m/s 593 mmHg 73%
    06:00 +14°C° 0 mm 1 m/s 594 mmHg 71%
    07:00 +15°C° 0.1 mm 2 m/s 595 mmHg 67%
    08:00 +16°C° 0.1 mm 2 m/s 595 mmHg 63%
    09:00 +18°C° 0.1 mm 2 m/s 596 mmHg 60%
    10:00 +18°C° 0.9 mm 2 m/s 596 mmHg 60%
    11:00 +18°C° 0.9 mm 2 m/s 596 mmHg 61%
    12:00 +18°C° 0.9 mm 2 m/s 596 mmHg 62%
    13:00 +18°C° 1.1 mm 2 m/s 596 mmHg 63%
    14:00 +18°C° 1.1 mm 2 m/s 596 mmHg 63%
    15:00 +18°C° 1.1 mm 2 m/s 596 mmHg 64%
    16:00 +18°C° 0.7 mm 2 m/s 596 mmHg 67%
    17:00 +18°C° 0.7 mm 1 m/s 595 mmHg 70%
    18:00 +16°C° 0.7 mm 1 m/s 595 mmHg 74%
    19:00 +15°C° 0 mm 1 m/s 595 mmHg 77%
    20:00 +13°C° 0 mm 1 m/s 594 mmHg 81%
    21:00 +12°C° 0 mm 2 m/s 594 mmHg 84%
    22:00 +12°C° 0 mm 2 m/s 594 mmHg 84%
    23:00 +10°C° 0 mm 2 m/s 593 mmHg 83%

    22 Junho, Sábado

    Tempo Temperatura Precipitação Vento Pressão Humidade
    00:00 +10°C° 0 mm 2 m/s 593 mmHg 83%
    01:00 +9°C° 0 mm 2 m/s 593 mmHg 82%
    02:00 +9°C° 0 mm 2 m/s 593 mmHg 81%
    03:00 +9°C° 0 mm 2 m/s 593 mmHg 80%
    04:00 +11°C° 0 mm 1 m/s 594 mmHg 76%
    05:00 +12°C° 0 mm 1 m/s 594 mmHg 72%
    06:00 +14°C° 0 mm 1 m/s 595 mmHg 68%
    07:00 +15°C° 0 mm 1 m/s 596 mmHg 65%
    08:00 +17°C° 0 mm 2 m/s 597 mmHg 62%
    09:00 +18°C° 0 mm 2 m/s 597 mmHg 59%
    10:00 +19°C° 0.6 mm 2 m/s 597 mmHg 60%
    11:00 +19°C° 0.6 mm 2 m/s 598 mmHg 61%
    12:00 +20°C° 0.6 mm 2 m/s 598 mmHg 62%
    13:00 +20°C° 1.2 mm 2 m/s 597 mmHg 62%
    14:00 +19°C° 1.2 mm 2 m/s 597 mmHg 64%
    15:00 +19°C° 1.2 mm 2 m/s 597 mmHg 66%
    16:00 +20°C° 0.9 mm 1 m/s 596 mmHg 67%
    17:00 +20°C° 0.9 mm 1 m/s 596 mmHg 68%
    18:00 +19°C° 0.9 mm 1 m/s 596 mmHg 69%
    19:00 +18°C° 0.1 mm 1 m/s 596 mmHg 73%
    20:00 +15°C° 0.1 mm 1 m/s 595 mmHg 76%
    21:00 +13°C° 0.1 mm 1 m/s 595 mmHg 80%
    22:00 +13°C° 0 mm 1 m/s 595 mmHg 80%
    23:00 +12°C° 0 mm 1 m/s 594 mmHg 81%

    23 Junho, Domingo

    Tempo Temperatura Precipitação Vento Pressão Humidade
    00:00 +12°C° 0 mm 1 m/s 594 mmHg 81%
    01:00 +12°C° 0 mm 1 m/s 594 mmHg 81%
    02:00 +12°C° 0 mm 1 m/s 594 mmHg 80%
    03:00 +12°C° 0 mm 1 m/s 594 mmHg 79%
    04:00 +13°C° 0 mm 1 m/s 595 mmHg 76%
    05:00 +15°C° 0 mm 1 m/s 596 mmHg 72%
    06:00 +16°C° 0 mm 1 m/s 596 mmHg 69%
    07:00 +18°C° 0.2 mm 1 m/s 597 mmHg 66%
    08:00 +19°C° 0.2 mm 1 m/s 597 mmHg 64%
    09:00 +19°C° 0.2 mm 2 m/s 598 mmHg 62%
    10:00 +20°C° 1.2 mm 2 m/s 598 mmHg 61%
    11:00 +20°C° 1.2 mm 2 m/s 598 mmHg 61%
    12:00 +21°C° 1.2 mm 2 m/s 598 mmHg 60%
    13:00 +21°C° 0.9 mm 2 m/s 598 mmHg 60%
    14:00 +21°C° 0.9 mm 2 m/s 598 mmHg 59%
    15:00 +21°C° 0.9 mm 2 m/s 598 mmHg 59%
    16:00 +22°C° 0.6 mm 1 m/s 597 mmHg 61%
    17:00 +21°C° 0.6 mm 1 m/s 597 mmHg 63%
    18:00 +21°C° 0.6 mm 1 m/s 597 mmHg 65%
    19:00 +19°C° 0.2 mm 1 m/s 596 mmHg 69%
    20:00 +16°C° 0.2 mm 1 m/s 595 mmHg 73%
    21:00 +14°C° 0.2 mm 1 m/s 595 mmHg 77%
    22:00 +13°C° 0 mm 1 m/s 595 mmHg 77%
    23:00 +13°C° 0 mm 1 m/s 595 mmHg 78%

    24 Junho, Segunda-feira

    Tempo Temperatura Precipitação Vento Pressão Humidade
    00:00 +13°C° 0 mm 1 m/s 594 mmHg 78%
    01:00 +13°C° 0 mm 1 m/s 594 mmHg 78%
    02:00 +13°C° 0 mm 1 m/s 594 mmHg 78%
    03:00 +12°C° 0 mm 1 m/s 594 mmHg 78%
    04:00 +14°C° 0 mm 1 m/s 595 mmHg 76%
    05:00 +15°C° 0 mm 1 m/s 596 mmHg 74%
    06:00 +16°C° 0 mm 1 m/s 596 mmHg 72%
    07:00 +18°C° 0.5 mm 1 m/s 597 mmHg 69%
    08:00 +19°C° 0.5 mm 1 m/s 597 mmHg 66%
    09:00 +20°C° 0.5 mm 2 m/s 598 mmHg 63%
    10:00 +20°C° 1.5 mm 2 m/s 598 mmHg 62%
    11:00 +21°C° 1.5 mm 2 m/s 598 mmHg 61%
    12:00 +21°C° 1.5 mm 2 m/s 598 mmHg 60%
    13:00 +21°C° 1.2 mm 2 m/s 598 mmHg 59%
    14:00 +21°C° 1.2 mm 2 m/s 598 mmHg 59%
    15:00 +21°C° 1.2 mm 2 m/s 597 mmHg 58%
    16:00 +21°C° 1.2 mm 2 m/s 597 mmHg 61%
    17:00 +20°C° 1.2 mm 2 m/s 597 mmHg 64%
    18:00 +20°C° 1.2 mm 1 m/s 596 mmHg 67%
    19:00 +19°C° 0.6 mm 1 m/s 596 mmHg 71%
    20:00 +16°C° 0.6 mm 2 m/s 596 mmHg 75%
    21:00 +14°C° 0.6 mm 2 m/s 595 mmHg 80%
    22:00 +14°C° 0.3 mm 1 m/s 595 mmHg 80%
    23:00 +14°C° 0.3 mm 1 m/s 595 mmHg 80%
    Mostrar mais